Weather History for Marshall, TX

Change the Weather History Date:

Thursday, October 10, 2013

  Actual Average (KGGG) Record (KGGG)
Temperature  
Mean Temperature 64 °F 68 °F  
Max Temperature 81 °F 80 °F 94 °F (1937)
Min Temperature 50 °F 56 °F 32 °F (2000)
Degree Days  
Heating Degree Days 0 2  
Month to date heating degree days 11  
Since 1 July heating degree days 17  
Cooling Degree Days 0 4  
Month to date cooling degree days 53  
Year to date cooling degree days 2332  
Growing Degree Days 14 (Base 50)    
Moisture  
Dew Point 55 °F    
Average Humidity 71    
Maximum Humidity 92    
Minimum Humidity 39    
Precipitation  
Precipitation 0.00 in 0.13 in 1.69 in (1968)
Month to date precipitation 1.48  
Year to date precipitation 35.47  
Snow  
Snow 0.00 in - - ()
Month to date snowfall  
Since 1 July snowfall  
Since 1 September snowfall  
Snow Depth -    
Sea Level Pressure  
Sea Level Pressure 30.06 in    
Wind  
Wind Speed 1 mph (SSE)    
Max Wind Speed 7 mph    
Max Gust Speed -    
Visibility 10 miles    
Events      
T = Trace of Precipitation, MM = Missing Value Source: NWS Daily Summary

Daily Weather History Graph

Daily Weather History Graph

Search for Another Location

Airport:

Trip Planner

Search our weather history database for the weather conditions in past years. The results will help you decide how hot, cold, wet, or windy it might be!

Date:

Astronomy

Oct. 10, 2013 Rise Set
Actual Time 7:17 AM CDT 6:50 PM CDT
Civil Twilight 6:53 AM CDT 7:14 PM CDT
Nautical Twilight 6:24 AM CDT 7:43 PM CDT
Astronomical Twilight 5:56 AM CDT 8:11 PM CDT
Moon 12:57 PM CDT (10/10) 11:40 PM CDT (10/10)
Length of Visible Light 12h 21m
Length of Day
11h 32m
Waxing Crescent, 36% of the Moon is Illuminated
Oct 10
Waxing Crescent
Oct 11
First Quarter
Oct 18
Full
Oct 26
Last Quarter
Nov 3
New

Hourly Weather History & Observations

Time (CDT) Temp. Dew Point Humidity Pressure Visibility Wind Dir Wind Speed Gust Speed Precip Events Conditions
12:15 AM 55.6 °F 52.2 °F 88% 30.08 in 10.0 mi Calm Calm - N/A   Clear
12:35 AM 55.6 °F 52.2 °F 88% 30.07 in 10.0 mi Calm Calm - N/A   Clear
12:55 AM 55.6 °F 52.3 °F 89% 30.07 in 10.0 mi Calm Calm - N/A   Clear
1:15 AM 55.6 °F 52.7 °F 90% 30.07 in 10.0 mi Calm Calm - N/A   Clear
1:35 AM 55.6 °F 52.7 °F 90% 30.08 in 10.0 mi Calm Calm - N/A   Clear
1:55 AM 55.6 °F 52.7 °F 90% 30.08 in 10.0 mi Calm Calm - N/A   Clear
2:15 AM 55.4 °F 52.5 °F 90% 30.08 in 10.0 mi Calm Calm - N/A   Clear
2:35 AM 55.2 °F 52.5 °F 91% 30.09 in 10.0 mi Calm Calm - N/A   Clear
2:55 AM 53.4 °F 50.7 °F 91% 30.08 in 10.0 mi Calm Calm - N/A   Clear
3:15 AM 53.1 °F 50.7 °F 92% 30.08 in 10.0 mi Calm Calm - N/A   Clear
3:35 AM 53.1 °F 50.5 °F 91% 30.08 in 10.0 mi Calm Calm - N/A   Clear
3:55 AM 53.2 °F 50.7 °F 91% 30.09 in 10.0 mi Calm Calm - N/A   Clear
4:15 AM 53.1 °F 50.5 °F 91% 30.09 in 10.0 mi Calm Calm - N/A   Clear
4:35 AM 53.1 °F 50.5 °F 91% 30.09 in 10.0 mi Calm Calm - N/A   Clear
4:55 AM 53.1 °F 50.5 °F 91% 30.09 in 10.0 mi Calm Calm - N/A   Clear
5:15 AM 53.1 °F 50.9 °F 92% 30.09 in 10.0 mi Calm Calm - N/A   Clear
5:35 AM 52.7 °F 50.5 °F 92% 30.09 in 10.0 mi Calm Calm - N/A   Clear
5:55 AM 51.8 °F 49.5 °F 92% 30.09 in 7.0 mi Calm Calm - N/A   Clear
6:15 AM 50.7 °F 48.4 °F 92% 30.09 in 10.0 mi Calm Calm - N/A   Clear
6:35 AM 50.5 °F 48.2 °F 92% 30.10 in 10.0 mi Calm Calm - N/A   Clear
6:55 AM 50.5 °F 48.2 °F 92% 30.10 in 7.0 mi Calm Calm - N/A   Clear
7:15 AM 50.5 °F 48.4 °F 92% 30.10 in 7.0 mi Calm Calm - N/A   Clear
7:35 AM 50.5 °F 48.4 °F 92% 30.10 in 7.0 mi Calm Calm - N/A   Clear
7:55 AM 53.1 °F 50.9 °F 92% 30.10 in 10.0 mi Calm Calm - N/A   Clear
8:15 AM 53.6 °F 51.3 °F 92% 30.10 in 10.0 mi Calm Calm - N/A   Clear
8:35 AM 56.8 °F 53.8 °F 89% 30.11 in 10.0 mi Calm Calm - N/A   Clear
8:55 AM 60.8 °F 55.0 °F 81% 30.12 in 10.0 mi Calm Calm - N/A   Clear
9:15 AM 63.1 °F 57.0 °F 80% 30.12 in 10.0 mi Calm Calm - N/A   Clear
9:35 AM 65.7 °F 58.5 °F 78% 30.12 in 10.0 mi Calm Calm - N/A   Clear
9:55 AM 65.7 °F 57.7 °F 76% 30.13 in 10.0 mi Calm Calm - N/A   Clear
10:15 AM 70.7 °F 61.7 °F 73% 30.13 in 10.0 mi Calm Calm - N/A   Clear
10:35 AM 70.7 °F 60.3 °F 69% 30.13 in 10.0 mi Calm Calm - N/A   Clear
10:55 AM 73.0 °F 60.4 °F 65% 30.13 in 10.0 mi South 3.5 mph - N/A   Clear
11:15 AM 73.0 °F 58.8 °F 61% 30.13 in 10.0 mi South 5.8 mph - N/A   Clear
11:35 AM 73.8 °F 57.2 °F 56% 30.12 in 10.0 mi Calm Calm - N/A   Clear
11:55 AM 75.6 °F 57.9 °F 54% 30.12 in 10.0 mi SSW 3.5 mph - N/A   Clear
12:15 PM 75.6 °F 57.0 °F 52% 30.11 in 10.0 mi South 5.8 mph - N/A   Clear
12:35 PM 75.6 °F 56.7 °F 52% 30.10 in 10.0 mi Calm Calm - N/A   Clear
12:55 PM 75.6 °F 55.0 °F 49% 30.09 in 10.0 mi SE 4.6 mph - N/A   Clear
1:15 PM 77.0 °F 54.9 °F 46% 30.07 in 10.0 mi South 4.6 mph - N/A   Clear
1:35 PM 77.7 °F 54.7 °F 45% 30.06 in 10.0 mi Calm Calm - N/A   Clear
1:55 PM 77.5 °F 55.2 °F 46% 30.05 in 10.0 mi South 3.5 mph - N/A   Clear
2:15 PM 78.1 °F 53.4 °F 42% 30.04 in 10.0 mi SSE 3.5 mph - N/A   Clear
2:35 PM 79.0 °F 54.0 °F 42% 30.04 in 10.0 mi SE 3.5 mph - N/A   Clear
2:55 PM 78.8 °F 52.3 °F 40% 30.03 in 10.0 mi SSW 5.8 mph - N/A   Clear
3:15 PM 78.8 °F 53.2 °F 41% 30.02 in 10.0 mi South 5.8 mph - N/A   Clear
3:35 PM 79.3 °F 52.9 °F 40% 30.01 in 10.0 mi SE 5.8 mph - N/A   Clear
3:55 PM 79.5 °F 53.1 °F 40% 30.01 in 10.0 mi SE 4.6 mph - N/A   Clear
4:15 PM 79.7 °F 52.7 °F 39% 30.01 in 10.0 mi SE 6.9 mph - N/A   Clear
4:35 PM 79.5 °F 53.4 °F 40% 30.00 in 10.0 mi SSE 5.8 mph - N/A   Clear
4:55 PM 79.2 °F 53.6 °F 41% 29.99 in 10.0 mi ESE 4.6 mph - N/A   Clear
5:15 PM 78.3 °F 53.4 °F 42% 29.99 in 10.0 mi SSE 5.8 mph - N/A   Clear
5:35 PM 78.1 °F 54.3 °F 44% 29.99 in 10.0 mi SE 3.5 mph - N/A   Clear
5:55 PM 77.5 °F 54.7 °F 45% 29.99 in 10.0 mi SE 4.6 mph - N/A   Clear
6:15 PM 76.5 °F 55.4 °F 48% 29.99 in 10.0 mi SE 3.5 mph - N/A   Clear
6:35 PM 75.6 °F 57.0 °F 52% 29.99 in 10.0 mi Calm Calm - N/A   Clear
6:55 PM 73.0 °F 57.9 °F 59% 29.98 in 10.0 mi Calm Calm - N/A   Clear
7:15 PM 70.7 °F 58.1 °F 64% 29.98 in 10.0 mi Calm Calm - N/A   Clear
7:35 PM 70.2 °F 59.2 °F 68% 29.99 in 10.0 mi Calm Calm - N/A   Clear
7:55 PM 70.3 °F 59.2 °F 68% 29.99 in 10.0 mi Calm Calm - N/A   Clear
8:15 PM 68.2 °F 58.1 °F 70% 29.99 in 10.0 mi Calm Calm - N/A   Clear
8:35 PM 66.9 °F 57.7 °F 72% 30.00 in 10.0 mi Calm Calm - N/A   Clear
8:55 PM 65.7 °F 59.2 °F 80% 30.00 in 10.0 mi Calm Calm - N/A   Clear
9:15 PM 65.7 °F 59.9 °F 82% 30.00 in 10.0 mi Calm Calm - N/A   Clear
9:35 PM 65.3 °F 59.9 °F 83% 30.00 in 10.0 mi Calm Calm - N/A   Clear
9:55 PM 64.9 °F 59.5 °F 83% 30.00 in 10.0 mi Calm Calm - N/A   Clear
10:15 PM 65.7 °F 59.9 °F 82% 30.00 in 10.0 mi Calm Calm - N/A   Clear
10:35 PM 65.7 °F 59.2 °F 80% 30.00 in 10.0 mi Calm Calm - N/A   Clear
10:55 PM 65.7 °F 58.6 °F 78% 29.99 in 10.0 mi Calm Calm - N/A   Clear
11:15 PM 66.2 °F 58.1 °F 75% 29.99 in 10.0 mi SSE 5.8 mph - N/A   Clear
11:35 PM 67.6 °F 59.5 °F 75% 29.98 in 10.0 mi SSE 4.6 mph - N/A   Clear
11:55 PM 65.7 °F 58.3 °F 77% 29.98 in 10.0 mi SSE 5.8 mph - N/A   Clear